DW9565 Weather Reports


Display with metric or nautical units.
time (UTC)temp
F
wind
direction
speed
MPH
gust
MPH
rain 1hr
in
rain 24hr
in
rain mn
in
humidity
%
barometer
mb
20260510061517 48 61 2.0 5.0 0.00 0.00 0.00 65 1019.5
20260510060006 51 109 1.0 10.0 0.00 0.00 0.00 62 1019.4
20260510054507 49 80 3.0 5.0 0.00 0.00 0.00 64 1019.3
20260510053005 49 77 3.0 8.0 0.00 0.00 0.00 64 1019.5
20260510051506 50 192 2.0 4.0 0.00 0.00 0.00 62 1019.3
20260510050005 51 134 2.0 4.0 0.00 0.00 0.00 60 1019.4
20260510044505 50 96 2.0 3.0 0.00 0.00 0.00 61 1019.6
20260510043013 50 96 0.0 0.0 0.00 0.00 0.00 62 1019.6
20260510041505 51 96 0.0 0.0 0.00 0.00 0.00 61 1019.4
20260510040004 51 96 0.0 0.0 0.00 0.00 0.00 61 1019.2
20260510034504 53 96 0.0 3.0 0.00 0.00 0.00 60 1019.2
20260510033002 53 96 2.0 3.0 0.00 0.00 0.00 59 1019.2
20260510031502 52 96 0.0 2.0 0.00 0.00 0.00 62 1019.0
20260510030003 53 96 0.0 2.0 0.00 0.00 0.00 62 1018.8
20260510024501 53 96 3.0 7.0 0.00 0.00 0.00 65 1018.6
20260510023001 53 97 5.0 11.0 0.00 0.00 0.00 64 1018.4
20260510021502 55 100 6.0 11.0 0.00 0.00 0.00 62 1018.3
20260510020101 55 105 8.0 11.0 0.00 0.00 0.00 63 1018.4
20260510020001 55 109 6.0 11.0 0.00 0.00 0.00 63 1018.4
20260510014600 55 103 6.0 8.0 0.00 0.00 0.00 63 1018.2
20260510014501 56 98 5.0 10.0 0.00 0.00 0.00 62 1018.5
20260510013003 56 107 7.0 11.0 0.00 0.00 0.00 62 1018.4
20260510011500 56 106 7.0 10.0 0.00 0.00 0.00 62 1018.4
20260510010001 55 105 7.0 12.0 0.00 0.00 0.00 64 1018.5
20260510004602 56 97 9.0 12.0 0.00 0.00 0.00 62 1018.5
20260510003004 58 87 9.0 12.0 0.00 0.00 0.00 60 1018.4
20260510001501 58 98 7.0 10.0 0.00 0.00 0.00 57 1018.4
20260510000108 57 107 8.0 10.0 0.00 0.00 0.00 58 1018.5
20260509234615 58 69 4.0 8.0 0.00 0.00 0.00 58 1018.6
20260509234503 57 53 4.0 8.0 0.00 0.00 0.00 61 1018.6
20260509233059 58 52 4.0 7.0 0.00 0.00 0.00 59 1018.6
20260509231600 57 242 1.0 5.0 0.00 0.00 0.00 60 1018.6
20260509230109 56 242 3.0 5.0 0.00 0.00 0.00 63 1018.8
20260509224558 58 219 5.0 8.0 0.00 0.00 0.00 54 1018.7
20260509223101 59 180 2.0 6.0 0.00 0.00 0.00 49 1018.7
20260509221558 59 280 2.0 7.0 0.00 0.00 0.00 47 1018.7
20260509220057 59 179 3.0 8.0 0.00 0.00 0.00 47 1018.8
20260509214558 59 216 4.0 10.0 0.00 0.00 0.00 47 1018.8
20260509213101 59 172 5.0 7.0 0.00 0.00 0.00 48 1018.8
20260509211604 60 215 3.0 13.0 0.00 0.00 0.00 47 1019.0
20260509210101 59 128 4.0 9.0 0.00 0.00 0.00 48 1019.0
20260509204555 58 194 2.0 8.0 0.00 0.00 0.00 48 1019.0
20260509203100 58 261 2.0 7.0 0.00 0.00 0.00 48 1019.0
20260509201559 57 243 5.0 9.0 0.00 0.00 0.00 50 1019.1
20260509194559 58 180 7.0 10.0 0.00 0.00 0.00 49 1019.0
20260509193056 59 167 5.0 8.0 0.00 0.00 0.00 48 1018.9
20260509191553 58 261 6.0 11.0 0.00 0.00 0.00 48 1018.9
20260509190050 57 264 4.0 10.0 0.00 0.00 0.00 46 1019.1
20260509184549 57 238 6.0 10.0 0.00 0.00 0.00 48 1019.1
20260509183121 57 306 3.0 8.0 0.00 0.00 0.00 48 1019.0
20260509181606 56 219 2.0 10.0 0.00 0.00 0.00 45 1019.0
20260509180050 57 263 4.0 8.0 0.00 0.00 0.00 45 1019.0
20260509174545 56 265 2.0 9.0 0.00 0.00 0.00 45 1018.9
20260509173046 57 355 1.0 5.0 0.00 0.00 0.00 45 1018.7
20260509171545 56 28 1.0 5.0 0.00 0.00 0.00 47 1018.7
20260509170044 56 28 2.0 6.0 0.00 0.00 0.00 45 1018.7
20260509164543 56 319 2.0 5.0 0.00 0.00 0.00 47 1018.7
20260509163042 57 240 0.0 5.0 0.00 0.00 0.00 46 1018.6
20260509161539 56 238 2.0 5.0 0.00 0.00 0.00 46 1018.6
20260509160037 56 238 3.0 5.0 0.00 0.00 0.00 47 1018.4
20260509154534 55 254 3.0 7.0 0.00 0.00 0.00 48 1018.2
20260509153034 55 279 2.0 4.0 0.00 0.00 0.00 47 1018.1
20260509151530 54 234 3.0 5.0 0.00 0.00 0.00 49 1018.1
20260509150028 53 224 1.0 5.0 0.00 0.00 0.00 54 1017.9
20260509144535 52 229 3.0 6.0 0.00 0.00 0.00 56 1017.8
20260509143027 51 229 4.0 7.0 0.00 0.00 0.00 57 1017.6
20260509141525 50 243 4.0 7.0 0.00 0.00 0.00 59 1017.6
20260509140025 50 243 4.0 7.0 0.00 0.00 0.00 59 1017.5
20260509134523 49 193 4.0 6.0 0.00 0.00 0.00 62 1017.5
20260509133027 48 230 4.0 6.0 0.00 0.00 0.00 62 1017.4
20260509131523 48 222 6.0 7.0 0.00 0.00 0.00 64 1017.2
20260509130020 47 215 2.0 5.0 0.00 0.00 0.00 66 1017.2
20260509124518 47 215 1.0 4.0 0.00 0.00 0.00 66 1016.9
20260509123018 47 215 1.0 3.0 0.00 0.00 0.00 62 1016.8
20260509121523 48 215 0.0 4.0 0.00 0.00 0.00 60 1016.6
20260509120017 48 207 0.0 2.0 0.00 0.00 0.00 60 1016.4
20260509114514 47 207 2.0 4.0 0.00 0.00 0.00 60 1016.3
20260509113019 47 207 1.0 3.0 0.00 0.00 0.00 61 1016.2
20260509111517 46 207 1.0 4.0 0.00 0.00 0.00 63 1015.9
20260509110013 48 207 2.0 7.0 0.00 0.00 0.00 57 1015.9
20260509104510 50 216 2.0 5.0 0.00 0.00 0.00 51 1015.7
20260509103007 51 207 1.0 3.0 0.00 0.00 0.00 49 1015.5
20260509101504 51 207 1.0 3.0 0.00 0.00 0.00 48 1015.3
20260509100005 51 207 1.0 3.0 0.00 0.00 0.00 49 1015.3
20260509094503 50 207 0.0 2.0 0.00 0.00 0.00 50 1015.2
20260509093002 52 207 1.0 2.0 0.00 0.00 0.00 48 1015.1
20260509091504 51 207 2.0 3.0 0.00 0.00 0.00 48 1015.1
20260509090002 51 207 0.0 3.0 0.00 0.00 0.00 51 1015.1
20260509084601 50 207 0.0 3.0 0.00 0.00 0.00 54 1014.9
20260509083106 50 225 4.0 6.0 0.00 0.00 0.00 54 1014.8
20260509081558 51 127 5.0 8.0 0.00 0.00 0.00 52 1014.6
20260509080059 51 119 6.0 8.0 0.00 0.00 0.00 50 1014.5
20260509074554 51 115 7.0 9.0 0.00 0.00 0.00 49 1014.6
20260509073055 52 114 6.0 9.0 0.00 0.00 0.00 48 1014.4
20260509071554 53 109 7.0 10.0 0.00 0.00 0.00 47 1014.3
20260509070053 52 111 6.0 8.0 0.00 0.00 0.00 48 1014.2
20260509064559 53 121 7.0 10.0 0.00 0.00 0.00 48 1014.2
20260509063050 53 115 7.0 11.0 0.00 0.00 0.00 48 1014.0